Regional Weather Roundup
Issued by NWS Albany, NY

Home | Current Version | Previous Version | Text Only | Print | Product List | Glossary On
Versions: 1 2 3 4 5 6 7 8 9 10 11 12 13 14 15 16 17 18 19 20 21 22 23 24 25 26 27
000
ASUS41 KALY 301510
RWRALY

NEW YORK STATE HOURLY WEATHER ROUNDUP
NATIONAL WEATHER SERVICE ALBANY NY
1100 AM EDT FRI SEP 30 2016

NOTE: "FAIR" INDICATES FEW OR NO CLOUDS BELOW 12,000 FEET WITH NO
SIGNIFICANT WEATHER AND/OR NO OBSTRUCTIONS TO VISIBILITY.

NYZ032-033-038>043-046>054-057>066-NYZ062>081-082-084-301600-
EAST


CITY           SKY/WX    TMP DP  RH WIND       PRES   REMARKS
ALBANY         CLOUDY    59  43  55 NE9       30.44F
GLENS FALLS    CLOUDY    58  40  51 NE8       30.46F
POUGHKEEPSIE   CLOUDY    61  48  62 NE13      30.36F
NEWBURGH       CLOUDY    59  52  77 E12G21    30.37F
MONTGOMERY     CLOUDY    57  50  77 NE15      30.35F
WHITE PLAINS   CLOUDY    58  50  75 NE8       30.32S
ISLIP          LGT RAIN  62  56  80 E14G26    30.30S
NEW YORK CITY  CLOUDY    62  56  80 NE24G37   30.30S
CENTRAL PARK   CLOUDY    58  54  86 NE10G21   30.33S FOG
$$

NYZ005>009-017-018-044>046-055-056-301600-
CENTRAL


CITY           SKY/WX    TMP DP  RH WIND       PRES   REMARKS
FULTON         CLOUDY    57  43  59 VRB7      30.38S
SYRACUSE       CLOUDY    54  45  71 E13       30.38S
ROME           PTSUNNY   56  45  66 E10       30.43S
ELMIRA         CLOUDY    56  48  74 NE7       30.33F
BINGHAMTON     LGT RAIN  47  46  97 E6        30.36R
MONTICELLO     CLOUDY    50  46  87 NE10      30.38S
$$

NYZ026>034-041>043-087-301600-
NORTH


CITY           SKY/WX    TMP DP  RH WIND       PRES   REMARKS
WATERTOWN      CLOUDY    59  49  69 NE13      30.40F
FORT DRUM      NOT AVBL
OGDENSBURG       N/A     58  50  75 E6        30.45R
MASSENA        CLOUDY    57  48  72 NE12      30.46F
SARANAC LAKE   CLOUDY    55  40  56 E5        30.43F
PLATTSBURGH    CLOUDY    60  45  57 SE6       30.48S
$$

NYZ001>004-010>016-019>021-085-301600-
WEST


CITY           SKY/WX    TMP DP  RH WIND       PRES   REMARKS
NIAGARA FALLS  PTSUNNY   60  47  61 E13       30.29F
BUFFALO        PTSUNNY   59  49  69 E12       30.29S
DUNKIRK        CLOUDY    64  56  75 E3        30.24F
JAMESTOWN      CLOUDY    57  52  82 E10G17    30.25S
WELLSVILLE     CLOUDY    51  49  92 SE10      30.33S
ROCHESTER      CLOUDY    59  45  59 SE10      30.35R
PENN YAN       LGT RAIN  56  44  64 VRB7      30.36S
$$

             KEY
       WCI = WIND CHILL INDEX
       VSB = VISIBILITY
       HX  = HEAT INDEX
$$




USA.gov is the U.S. government's official web portal to all federal, state and local government web resources and services.